Time,TemperatureF,DewpointF,PressureIn,WindDirection,WindDirectionDegrees,WindSpeedMPH,WindSpeedGustMPH,Humidity,HourlyPrecipIn,Conditions,Clouds,dailyrainin,SoftwareType,DateUTC
2013-08-31 00:01:00,63.7,46.7,0.00,NW,304,0.0,0.0,54,0.00,,,0.00,VWS V13.01,2013-08-31 05:01:00,
2013-08-31 00:06:00,63.5,47.1,0.00,NW,325,0.0,0.0,55,0.00,,,0.00,VWS V13.01,2013-08-31 05:06:00,
2013-08-31 00:11:00,63.5,47.1,0.00,SE,125,0.0,3.1,55,0.00,,,0.00,VWS V13.01,2013-08-31 05:11:00,
2013-08-31 00:16:00,63.5,47.5,0.00,SSE,166,0.0,2.2,56,0.00,,,0.00,VWS V13.01,2013-08-31 05:16:00,
2013-08-31 00:21:00,63.5,48.0,0.00,NNE,14,0.0,0.0,57,0.00,,,0.00,VWS V13.01,2013-08-31 05:21:00,
2013-08-31 00:26:00,63.5,48.0,0.00,North,8,0.0,0.0,57,0.00,,,0.00,VWS V13.01,2013-08-31 05:26:00,
2013-08-31 00:31:00,63.3,48.3,0.00,ESE,111,0.0,0.0,58,0.00,,,0.00,VWS V13.01,2013-08-31 05:31:00,
2013-08-31 00:36:00,63.5,49.4,0.00,ESE,117,2.7,2.7,60,0.00,,,0.00,VWS V13.01,2013-08-31 05:36:00,
2013-08-31 00:41:00,63.5,50.3,0.00,ESE,123,0.0,0.0,62,0.00,,,0.00,VWS V13.01,2013-08-31 05:41:00,
2013-08-31 00:46:00,63.3,50.1,0.00,East,98,0.0,0.0,62,0.00,,,0.00,VWS V13.01,2013-08-31 05:46:00,
2013-08-31 00:51:00,63.3,50.1,0.00,ESE,116,0.0,0.0,62,0.00,,,0.00,VWS V13.01,2013-08-31 05:51:00,
2013-08-31 00:56:00,63.1,50.3,0.00,ESE,112,0.0,0.0,63,0.00,,,0.00,VWS V13.01,2013-08-31 05:56:00,
2013-08-31 01:01:00,63.0,50.2,0.00,SE,126,2.2,2.2,63,0.00,,,0.00,VWS V13.01,2013-08-31 06:01:00,
2013-08-31 01:06:00,63.0,50.2,0.00,SE,126,0.0,0.0,63,0.00,,,0.00,VWS V13.01,2013-08-31 06:06:00,
2013-08-31 01:11:00,62.8,50.0,0.00,SE,126,0.0,0.0,63,0.00,,,0.00,VWS V13.01,2013-08-31 06:11:00,
2013-08-31 01:16:00,62.6,49.8,0.00,SE,126,0.0,0.0,63,0.00,,,0.00,VWS V13.01,2013-08-31 06:16:00,
2013-08-31 01:21:00,62.4,50.1,0.00,SE,126,0.0,0.0,64,0.00,,,0.00,VWS V13.01,2013-08-31 06:21:00,
2013-08-31 01:26:00,62.2,49.9,0.00,SE,126,0.0,0.0,64,0.00,,,0.00,VWS V13.01,2013-08-31 06:26:00,
2013-08-31 01:31:00,61.9,49.6,0.00,SE,126,0.0,0.0,64,0.00,,,0.00,VWS V13.01,2013-08-31 06:31:00,
2013-08-31 01:36:00,61.7,49.4,0.00,SE,126,0.0,0.0,64,0.00,,,0.00,VWS V13.01,2013-08-31 06:36:00,
2013-08-31 01:41:00,61.5,49.2,0.00,SE,126,0.0,0.0,64,0.00,,,0.00,VWS V13.01,2013-08-31 06:41:00,
2013-08-31 01:46:00,61.3,49.5,0.00,SE,126,0.0,0.0,65,0.00,,,0.00,VWS V13.01,2013-08-31 06:46:00,
2013-08-31 01:51:00,61.2,49.3,0.00,SE,126,0.0,0.0,65,0.00,,,0.00,VWS V13.01,2013-08-31 06:51:00,
2013-08-31 01:56:00,61.0,49.5,0.00,SE,126,0.0,0.0,66,0.00,,,0.00,VWS V13.01,2013-08-31 06:56:00,
2013-08-31 02:01:00,61.0,49.5,0.00,SE,126,0.0,0.0,66,0.00,,,0.00,VWS V13.01,2013-08-31 07:01:00,
2013-08-31 02:06:00,60.8,49.4,0.00,SE,126,0.0,0.0,66,0.00,,,0.00,VWS V13.01,2013-08-31 07:06:00,
2013-08-31 02:11:00,60.6,49.6,0.00,SE,126,0.0,0.0,67,0.00,,,0.00,VWS V13.01,2013-08-31 07:11:00,
2013-08-31 02:16:00,60.4,49.4,0.00,SE,126,0.0,0.0,67,0.00,,,0.00,VWS V13.01,2013-08-31 07:16:00,
2013-08-31 02:21:00,60.1,49.1,0.00,SE,126,0.0,0.0,67,0.00,,,0.00,VWS V13.01,2013-08-31 07:21:00,
2013-08-31 02:26:00,59.9,48.9,0.00,SE,126,0.0,0.0,67,0.00,,,0.00,VWS V13.01,2013-08-31 07:26:00,
2013-08-31 02:31:00,59.5,48.6,0.00,SE,126,0.0,0.0,67,0.00,,,0.00,VWS V13.01,2013-08-31 07:31:00,
2013-08-31 02:36:00,59.4,48.8,0.00,SE,126,0.0,0.0,68,0.00,,,0.00,VWS V13.01,2013-08-31 07:36:00,
2013-08-31 02:41:00,59.2,48.6,0.00,SE,126,0.0,0.0,68,0.00,,,0.00,VWS V13.01,2013-08-31 07:41:00,
2013-08-31 02:46:00,59.2,49.0,0.00,North,1,0.0,0.0,69,0.00,,,0.00,VWS V13.01,2013-08-31 07:46:00,
2013-08-31 02:51:00,59.2,49.0,0.00,NNW,341,0.0,0.0,69,0.00,,,0.00,VWS V13.01,2013-08-31 07:51:00,
2013-08-31 02:56:00,59.4,49.6,0.00,NNW,341,0.0,0.0,70,0.00,,,0.00,VWS V13.01,2013-08-31 07:56:00,
2013-08-31 03:01:00,59.2,49.0,0.00,NNW,341,0.0,0.0,69,0.00,,,0.00,VWS V13.01,2013-08-31 08:01:00,
2013-08-31 03:06:00,59.2,49.4,0.00,NNW,341,0.0,0.0,70,0.00,,,0.00,VWS V13.01,2013-08-31 08:06:00,
2013-08-31 03:11:00,58.6,48.9,0.00,NNW,341,0.0,0.0,70,0.00,,,0.00,VWS V13.01,2013-08-31 08:11:00,
2013-08-31 03:16:00,58.3,48.5,0.00,NNW,341,0.0,0.0,70,0.00,,,0.00,VWS V13.01,2013-08-31 08:16:00,
2013-08-31 03:21:00,58.1,48.4,0.00,NNW,341,0.0,0.0,70,0.00,,,0.00,VWS V13.01,2013-08-31 08:21:00,
2013-08-31 03:26:00,57.9,48.2,0.00,NNW,341,0.0,0.0,70,0.00,,,0.00,VWS V13.01,2013-08-31 08:26:00,
2013-08-31 03:31:00,57.7,48.0,0.00,NNW,341,0.0,0.0,70,0.00,,,0.00,VWS V13.01,2013-08-31 08:31:00,
2013-08-31 03:36:00,57.6,48.2,0.00,NNW,341,0.0,0.0,71,0.00,,,0.00,VWS V13.01,2013-08-31 08:36:00,
2013-08-31 03:41:00,57.4,48.1,0.00,NNW,341,0.0,0.0,71,0.00,,,0.00,VWS V13.01,2013-08-31 08:41:00,
2013-08-31 03:46:00,57.6,48.2,0.00,NNW,341,0.0,0.0,71,0.00,,,0.00,VWS V13.01,2013-08-31 08:46:00,
2013-08-31 03:51:00,57.7,48.8,0.00,NNW,341,0.0,0.0,72,0.00,,,0.00,VWS V13.01,2013-08-31 08:51:00,
2013-08-31 03:56:00,57.7,48.8,0.00,NNW,341,0.0,0.0,72,0.00,,,0.00,VWS V13.01,2013-08-31 08:56:00,
2013-08-31 04:01:00,57.6,48.6,0.00,NNW,341,0.0,0.0,72,0.00,,,0.00,VWS V13.01,2013-08-31 09:01:00,
2013-08-31 04:06:00,57.7,49.2,0.00,NNW,341,0.0,0.0,73,0.00,,,0.00,VWS V13.01,2013-08-31 09:06:00,
2013-08-31 04:11:00,57.7,49.2,0.00,NNW,341,0.0,0.0,73,0.00,,,0.00,VWS V13.01,2013-08-31 09:11:00,
2013-08-31 04:16:00,57.6,49.0,0.00,NNW,341,0.0,0.0,73,0.00,,,0.00,VWS V13.01,2013-08-31 09:16:00,
2013-08-31 04:21:00,57.6,49.3,0.00,NNW,341,0.0,0.0,74,0.00,,,0.00,VWS V13.01,2013-08-31 09:21:00,
2013-08-31 04:26:00,57.2,48.6,0.00,NNW,341,0.0,0.0,73,0.00,,,0.00,VWS V13.01,2013-08-31 09:26:00,
2013-08-31 04:31:00,57.4,49.2,0.00,NNW,341,0.0,0.0,74,0.00,,,0.00,VWS V13.01,2013-08-31 09:31:00,
2013-08-31 04:36:00,57.6,49.7,0.00,NNW,341,0.0,0.0,75,0.00,,,0.00,VWS V13.01,2013-08-31 09:36:00,
2013-08-31 04:41:00,57.7,49.5,0.00,NNW,341,0.0,0.0,74,0.00,,,0.00,VWS V13.01,2013-08-31 09:41:00,
2013-08-31 04:46:00,57.4,49.2,0.00,NNW,341,0.0,0.0,74,0.00,,,0.00,VWS V13.01,2013-08-31 09:46:00,
2013-08-31 04:51:00,57.2,49.4,0.00,NNW,341,0.0,0.0,75,0.00,,,0.00,VWS V13.01,2013-08-31 09:51:00,
2013-08-31 04:56:00,57.0,49.2,0.00,NNW,341,0.0,0.0,75,0.00,,,0.00,VWS V13.01,2013-08-31 09:56:00,
2013-08-31 05:01:00,57.0,49.2,0.00,NNW,341,0.0,0.0,75,0.00,,,0.00,VWS V13.01,2013-08-31 10:01:00,
2013-08-31 05:06:00,56.8,49.4,0.00,NNW,341,0.0,0.0,76,0.00,,,0.00,VWS V13.01,2013-08-31 10:06:00,
2013-08-31 05:11:00,56.7,49.2,0.00,NNW,341,0.0,0.0,76,0.00,,,0.00,VWS V13.01,2013-08-31 10:11:00,
2013-08-31 05:16:00,56.7,49.2,0.00,NNW,341,0.0,0.0,76,0.00,,,0.00,VWS V13.01,2013-08-31 10:16:00,
2013-08-31 05:21:00,56.7,49.2,0.00,NNW,341,0.0,0.0,76,0.00,,,0.00,VWS V13.01,2013-08-31 10:21:00,
2013-08-31 05:26:00,56.7,49.2,0.00,NNW,341,0.0,0.0,76,0.00,,,0.00,VWS V13.01,2013-08-31 10:26:00,
2013-08-31 05:31:00,56.7,49.5,0.00,NNW,341,0.0,0.0,77,0.00,,,0.00,VWS V13.01,2013-08-31 10:31:00,
2013-08-31 05:36:00,56.5,49.4,0.00,NNW,341,0.0,0.0,77,0.00,,,0.00,VWS V13.01,2013-08-31 10:36:00,
2013-08-31 05:41:00,56.5,49.4,0.00,NNW,341,0.0,0.0,77,0.00,,,0.00,VWS V13.01,2013-08-31 10:41:00,
2013-08-31 05:46:00,57.2,50.4,0.00,NNW,341,0.0,0.0,78,0.00,,,0.00,VWS V13.01,2013-08-31 10:46:00,
2013-08-31 05:51:00,57.2,50.1,0.00,NNW,341,0.0,0.0,77,0.00,,,0.00,VWS V13.01,2013-08-31 10:51:00,
2013-08-31 05:56:00,57.2,50.1,0.00,NNW,341,0.0,0.0,77,0.00,,,0.00,VWS V13.01,2013-08-31 10:56:00,
2013-08-31 06:01:00,57.2,50.1,0.00,NNW,341,0.0,0.0,77,0.00,,,0.00,VWS V13.01,2013-08-31 11:01:00,
2013-08-31 06:06:00,56.8,49.7,0.00,NNW,341,0.0,0.0,77,0.00,,,0.00,VWS V13.01,2013-08-31 11:06:00,
2013-08-31 06:11:00,56.7,49.5,0.00,NNW,341,0.0,0.0,77,0.00,,,0.00,VWS V13.01,2013-08-31 11:11:00,
2013-08-31 06:16:00,56.7,49.5,0.00,NNW,341,0.0,0.0,77,0.00,,,0.00,VWS V13.01,2013-08-31 11:16:00,
2013-08-31 06:21:00,56.5,49.4,0.00,NNW,341,0.0,0.0,77,0.00,,,0.00,VWS V13.01,2013-08-31 11:21:00,
2013-08-31 06:26:00,56.5,49.4,0.00,NNW,341,0.0,0.0,77,0.00,,,0.00,VWS V13.01,2013-08-31 11:26:00,
2013-08-31 06:31:00,56.8,50.1,0.00,NNW,341,0.0,0.0,78,0.00,,,0.00,VWS V13.01,2013-08-31 11:31:00,
2013-08-31 06:36:00,57.2,50.4,0.00,NNW,341,0.0,0.0,78,0.00,,,0.00,VWS V13.01,2013-08-31 11:36:00,
2013-08-31 06:41:00,57.4,50.2,0.00,NNW,341,0.0,0.0,77,0.00,,,0.00,VWS V13.01,2013-08-31 11:41:00,
2013-08-31 06:46:00,57.4,50.2,0.00,NNW,341,0.0,0.0,77,0.00,,,0.00,VWS V13.01,2013-08-31 11:46:00,
2013-08-31 06:51:00,57.2,50.1,0.00,NNW,341,0.0,0.0,77,0.00,,,0.00,VWS V13.01,2013-08-31 11:51:00,
2013-08-31 06:56:00,57.2,50.1,0.00,NNW,341,0.0,0.0,77,0.00,,,0.00,VWS V13.01,2013-08-31 11:56:00,
2013-08-31 07:01:00,57.2,50.1,0.00,NNW,341,0.0,0.0,77,0.00,,,0.00,VWS V13.01,2013-08-31 12:01:00,
2013-08-31 07:06:00,57.0,49.9,0.00,NNW,341,0.0,0.0,77,0.00,,,0.00,VWS V13.01,2013-08-31 12:06:00,
2013-08-31 07:11:00,57.0,49.9,0.00,NNW,331,0.0,0.0,77,0.00,,,0.00,VWS V13.01,2013-08-31 12:11:00,
2013-08-31 07:16:00,57.0,50.2,0.00,NNW,336,0.0,0.0,78,0.00,,,0.00,VWS V13.01,2013-08-31 12:16:00,
2013-08-31 07:21:00,57.0,50.2,0.00,North,353,3.6,3.6,78,0.00,,,0.00,VWS V13.01,2013-08-31 12:21:00,
2013-08-31 07:26:00,56.8,50.1,0.00,NNW,343,0.0,0.0,78,0.00,,,0.00,VWS V13.01,2013-08-31 12:26:00,
2013-08-31 07:31:00,57.0,50.2,0.00,ENE,60,0.0,0.0,78,0.00,,,0.00,VWS V13.01,2013-08-31 12:31:00,
2013-08-31 07:36:00,57.6,50.8,0.00,ENE,62,0.0,0.0,78,0.00,,,0.00,VWS V13.01,2013-08-31 12:36:00,
2013-08-31 07:41:00,57.6,50.8,0.00,ENE,62,0.0,0.0,78,0.00,,,0.00,VWS V13.01,2013-08-31 12:41:00,
2013-08-31 07:46:00,57.9,51.1,0.00,ENE,62,0.0,0.0,78,0.00,,,0.00,VWS V13.01,2013-08-31 12:46:00,
2013-08-31 07:51:00,58.5,52.0,0.00,ESE,119,0.0,0.0,79,0.00,,,0.00,VWS V13.01,2013-08-31 12:51:00,
2013-08-31 07:56:00,58.8,52.3,0.00,ESE,119,0.0,0.0,79,0.00,,,0.00,VWS V13.01,2013-08-31 12:56:00,
2013-08-31 08:01:00,59.0,52.5,0.00,ESE,119,0.0,0.0,79,0.00,,,0.00,VWS V13.01,2013-08-31 13:01:00,
2013-08-31 08:06:00,59.2,52.7,0.00,ESE,119,0.0,0.0,79,0.00,,,0.00,VWS V13.01,2013-08-31 13:06:00,
2013-08-31 08:11:00,59.2,52.7,0.00,NNW,342,0.0,0.0,79,0.00,,,0.00,VWS V13.01,2013-08-31 13:11:00,
2013-08-31 08:16:00,59.5,53.0,0.00,ESE,108,0.0,0.0,79,0.00,,,0.00,VWS V13.01,2013-08-31 13:16:00,
2013-08-31 08:21:00,59.7,53.2,0.00,ESE,111,0.0,4.0,79,0.00,,,0.00,VWS V13.01,2013-08-31 13:21:00,
2013-08-31 08:26:00,60.1,53.9,0.00,ESE,111,0.0,2.2,80,0.00,,,0.00,VWS V13.01,2013-08-31 13:26:00,
2013-08-31 08:31:00,60.4,54.6,0.00,ESE,116,0.0,0.0,81,0.00,,,0.00,VWS V13.01,2013-08-31 13:31:00,
2013-08-31 08:36:00,61.0,55.1,0.00,ESE,116,0.0,0.0,81,0.00,,,0.00,VWS V13.01,2013-08-31 13:36:00,
2013-08-31 08:41:00,61.3,55.1,0.00,ESE,116,0.0,0.0,80,0.00,,,0.00,VWS V13.01,2013-08-31 13:41:00,
2013-08-31 08:46:00,61.3,55.1,0.00,ESE,116,0.0,0.0,80,0.00,,,0.00,VWS V13.01,2013-08-31 13:46:00,
2013-08-31 08:51:00,61.3,55.1,0.00,ESE,116,0.0,0.0,80,0.00,,,0.00,VWS V13.01,2013-08-31 13:51:00,
2013-08-31 08:56:00,61.9,56.0,0.00,ESE,116,0.0,0.0,81,0.00,,,0.00,VWS V13.01,2013-08-31 13:56:00,
2013-08-31 09:01:00,62.4,56.5,0.00,ESE,116,0.0,0.0,81,0.00,,,0.00,VWS V13.01,2013-08-31 14:01:00,
2013-08-31 09:06:00,63.1,57.2,0.00,ESE,116,0.0,0.0,81,0.00,,,0.00,VWS V13.01,2013-08-31 14:06:00,
2013-08-31 09:11:00,63.9,57.9,0.00,ESE,116,0.0,0.0,81,0.00,,,0.00,VWS V13.01,2013-08-31 14:11:00,
2013-08-31 09:16:00,64.9,59.3,0.00,ESE,115,0.0,0.0,82,0.00,,,0.00,VWS V13.01,2013-08-31 14:16:00,
2013-08-31 09:21:00,66.0,60.4,0.00,ESE,114,0.0,0.0,82,0.00,,,0.00,VWS V13.01,2013-08-31 14:21:00,
2013-08-31 09:26:00,66.4,60.4,0.00,ESE,114,2.2,2.2,81,0.00,,,0.00,VWS V13.01,2013-08-31 14:26:00,
2013-08-31 09:31:00,66.4,60.4,0.00,ESE,114,0.0,0.0,81,0.00,,,0.00,VWS V13.01,2013-08-31 14:31:00,
2013-08-31 09:36:00,66.9,61.2,0.00,ESE,114,0.0,2.2,82,0.00,,,0.00,VWS V13.01,2013-08-31 14:36:00,
2013-08-31 09:41:00,66.9,60.6,0.00,ESE,116,0.0,2.2,80,0.00,,,0.00,VWS V13.01,2013-08-31 14:41:00,
2013-08-31 09:46:00,66.9,56.0,0.00,ESE,109,0.0,2.2,68,0.00,,,0.00,VWS V13.01,2013-08-31 14:46:00,
2013-08-31 09:51:00,66.9,50.7,0.00,ESE,114,3.6,5.8,56,0.00,,,0.00,VWS V13.01,2013-08-31 14:51:00,
2013-08-31 09:56:00,67.5,52.7,0.00,South,173,3.1,3.1,59,0.00,,,0.00,VWS V13.01,2013-08-31 14:56:00,
2013-08-31 10:01:00,67.5,49.2,0.00,SSW,199,4.9,4.9,52,0.00,,,0.00,VWS V13.01,2013-08-31 15:01:00,
2013-08-31 10:06:00,67.5,49.8,0.00,SSW,196,3.6,3.6,53,0.00,,,0.00,VWS V13.01,2013-08-31 15:06:00,
2013-08-31 10:11:00,67.6,47.8,0.00,SSE,153,4.0,5.4,49,0.00,,,0.00,VWS V13.01,2013-08-31 15:11:00,
2013-08-31 10:16:00,67.8,49.6,0.00,SSW,194,2.2,3.6,52,0.00,,,0.00,VWS V13.01,2013-08-31 15:16:00,
2013-08-31 10:21:00,68.2,48.8,0.00,SE,146,3.1,4.0,50,0.00,,,0.00,VWS V13.01,2013-08-31 15:21:00,
2013-08-31 10:26:00,68.2,48.3,0.00,SSE,167,3.6,4.0,49,0.00,,,0.00,VWS V13.01,2013-08-31 15:26:00,
2013-08-31 10:31:00,68.4,47.9,0.00,SSE,167,5.8,5.8,48,0.00,,,0.00,VWS V13.01,2013-08-31 15:31:00,
2013-08-31 10:36:00,68.5,47.5,0.00,SSE,149,4.9,5.8,47,0.00,,,0.00,VWS V13.01,2013-08-31 15:36:00,
2013-08-31 10:41:00,68.9,47.9,0.00,SSE,162,4.0,4.5,47,0.00,,,0.00,VWS V13.01,2013-08-31 15:41:00,
2013-08-31 10:46:00,69.3,48.2,0.00,SSE,154,4.0,4.0,47,0.00,,,0.00,VWS V13.01,2013-08-31 15:46:00,
2013-08-31 10:51:00,69.6,47.4,0.00,ESE,119,3.1,4.0,45,0.00,,,0.00,VWS V13.01,2013-08-31 15:51:00,
2013-08-31 10:56:00,70.0,48.3,0.00,South,178,4.0,4.0,46,0.00,,,0.00,VWS V13.01,2013-08-31 15:56:00,
2013-08-31 11:01:00,70.2,47.2,0.00,South,176,4.0,4.0,44,0.00,,,0.00,VWS V13.01,2013-08-31 16:01:00,
2013-08-31 11:06:00,70.3,47.4,0.00,South,183,2.7,3.1,44,0.00,,,0.00,VWS V13.01,2013-08-31 16:06:00,
2013-08-31 11:11:00,70.5,48.2,0.00,SSE,162,2.7,2.7,45,0.00,,,0.00,VWS V13.01,2013-08-31 16:11:00,
2013-08-31 11:16:00,70.9,47.9,0.00,SSE,160,3.6,3.6,44,0.00,,,0.00,VWS V13.01,2013-08-31 16:16:00,
2013-08-31 11:21:00,71.2,47.0,0.00,SW,214,3.6,4.0,42,0.00,,,0.00,VWS V13.01,2013-08-31 16:21:00,
2013-08-31 11:26:00,71.8,47.5,0.00,SSE,147,4.0,4.0,42,0.00,,,0.00,VWS V13.01,2013-08-31 16:26:00,
2013-08-31 11:31:00,72.0,47.0,0.00,South,176,4.5,4.5,41,0.00,,,0.00,VWS V13.01,2013-08-31 16:31:00,
2013-08-31 11:36:00,72.1,47.2,0.00,SE,139,3.6,3.6,41,0.00,,,0.00,VWS V13.01,2013-08-31 16:36:00,
2013-08-31 11:40:00,72.3,47.3,0.00,SE,132,3.6,3.6,41,0.00,,,0.00,VWS V13.01,2013-08-31 16:40:00,
2013-08-31 11:45:00,72.7,47.0,0.00,SSE,155,6.3,6.3,40,0.00,,,0.00,VWS V13.01,2013-08-31 16:45:00,
2013-08-31 11:50:00,72.7,47.0,0.00,SE,145,2.7,3.6,40,0.00,,,0.00,VWS V13.01,2013-08-31 16:50:00,
2013-08-31 11:55:00,72.9,46.5,0.00,South,173,4.9,5.8,39,0.00,,,0.00,VWS V13.01,2013-08-31 16:55:00,
2013-08-31 12:00:00,73.2,47.5,0.00,SE,135,2.7,2.7,40,0.00,,,0.00,VWS V13.01,2013-08-31 17:00:00,
2013-08-31 12:05:00,73.6,45.7,0.00,SE,125,4.0,4.9,37,0.00,,,0.00,VWS V13.01,2013-08-31 17:05:00,
2013-08-31 12:11:00,73.8,46.6,0.00,SE,135,4.0,4.0,38,0.00,,,0.00,VWS V13.01,2013-08-31 17:11:00,
2013-08-31 12:16:00,74.3,47.8,0.00,SSE,148,2.2,2.7,39,0.00,,,0.00,VWS V13.01,2013-08-31 17:16:00,
2013-08-31 12:21:00,74.7,46.0,0.00,SSE,147,5.4,5.4,36,0.00,,,0.00,VWS V13.01,2013-08-31 17:21:00,
2013-08-31 12:26:00,74.8,46.1,0.00,South,178,5.8,5.8,36,0.00,,,0.00,VWS V13.01,2013-08-31 17:26:00,
2013-08-31 12:31:00,74.8,45.4,0.00,South,186,4.9,5.4,35,0.00,,,0.00,VWS V13.01,2013-08-31 17:31:00,
2013-08-31 12:36:00,74.7,46.0,0.00,SSE,152,4.0,4.0,36,0.00,,,0.00,VWS V13.01,2013-08-31 17:36:00,
2013-08-31 12:41:00,75.2,46.4,0.00,SE,146,0.0,3.1,36,0.00,,,0.00,VWS V13.01,2013-08-31 17:41:00,
2013-08-31 12:46:00,76.1,44.9,0.00,SSE,168,2.7,3.1,33,0.00,,,0.00,VWS V13.01,2013-08-31 17:46:00,
2013-08-31 12:51:00,76.1,45.7,0.00,SSE,154,3.6,3.6,34,0.00,,,0.00,VWS V13.01,2013-08-31 17:51:00,
2013-08-31 12:56:00,76.3,46.7,0.00,SE,133,0.0,0.0,35,0.00,,,0.00,VWS V13.01,2013-08-31 17:56:00,
2013-08-31 13:01:00,77.4,46.8,0.00,SE,128,0.0,0.0,34,0.00,,,0.00,VWS V13.01,2013-08-31 18:01:00,
2013-08-31 13:06:00,77.5,45.4,0.00,ESE,114,4.0,4.0,32,0.00,,,0.00,VWS V13.01,2013-08-31 18:06:00,
2013-08-31 13:11:00,76.6,45.4,0.00,SSE,148,2.7,4.0,33,0.00,,,0.00,VWS V13.01,2013-08-31 18:11:00,
2013-08-31 13:16:00,76.6,45.4,0.00,SE,127,0.0,2.2,33,0.00,,,0.00,VWS V13.01,2013-08-31 18:16:00,
2013-08-31 13:21:00,77.0,46.5,0.00,ESE,104,0.0,0.0,34,0.00,,,0.00,VWS V13.01,2013-08-31 18:21:00,
2013-08-31 13:26:00,78.1,46.7,0.00,ESE,116,0.0,0.0,33,0.00,,,0.00,VWS V13.01,2013-08-31 18:26:00,
2013-08-31 13:31:00,77.9,44.9,0.00,SSE,156,4.0,5.8,31,0.00,,,0.00,VWS V13.01,2013-08-31 18:31:00,
2013-08-31 13:36:00,77.5,45.4,0.00,South,185,5.4,5.4,32,0.00,,,0.00,VWS V13.01,2013-08-31 18:36:00,
2013-08-31 13:41:00,77.4,45.2,0.00,SE,143,4.9,6.3,32,0.00,,,0.00,VWS V13.01,2013-08-31 18:41:00,
2013-08-31 13:46:00,77.2,45.1,0.00,South,172,3.6,3.6,32,0.00,,,0.00,VWS V13.01,2013-08-31 18:46:00,
2013-08-31 13:51:00,77.4,46.0,0.00,South,179,3.1,4.9,33,0.00,,,0.00,VWS V13.01,2013-08-31 18:51:00,
2013-08-31 13:56:00,77.4,46.0,0.00,South,175,2.7,2.7,33,0.00,,,0.00,VWS V13.01,2013-08-31 18:56:00,
2013-08-31 14:01:00,77.7,45.5,0.00,SSW,195,2.7,3.1,32,0.00,,,0.00,VWS V13.01,2013-08-31 19:01:00,
2013-08-31 14:06:00,78.1,45.0,0.00,South,184,3.6,4.9,31,0.00,,,0.00,VWS V13.01,2013-08-31 19:06:00,
2013-08-31 14:11:00,78.1,45.8,0.00,SE,134,0.0,3.6,32,0.00,,,0.00,VWS V13.01,2013-08-31 19:11:00,
2013-08-31 14:16:00,78.3,45.2,0.00,SSW,196,3.6,6.3,31,0.00,,,0.00,VWS V13.01,2013-08-31 19:16:00,
2013-08-31 14:21:00,78.3,45.2,0.00,SE,137,2.2,2.7,31,0.00,,,0.00,VWS V13.01,2013-08-31 19:21:00,
2013-08-31 14:26:00,78.3,45.2,0.00,SSE,148,3.6,4.9,31,0.00,,,0.00,VWS V13.01,2013-08-31 19:26:00,
2013-08-31 14:31:00,78.3,45.2,0.00,SSE,167,3.1,3.1,31,0.00,,,0.00,VWS V13.01,2013-08-31 19:31:00,
2013-08-31 14:36:00,78.4,45.3,0.00,South,172,3.6,3.6,31,0.00,,,0.00,VWS V13.01,2013-08-31 19:36:00,
2013-08-31 14:41:00,78.4,45.3,0.00,South,190,3.6,4.9,31,0.00,,,0.00,VWS V13.01,2013-08-31 19:41:00,
2013-08-31 14:46:00,78.6,45.5,0.00,South,183,2.2,3.6,31,0.00,,,0.00,VWS V13.01,2013-08-31 19:46:00,
2013-08-31 14:51:00,78.8,44.8,0.00,SSE,153,4.0,4.0,30,0.00,,,0.00,VWS V13.01,2013-08-31 19:51:00,
2013-08-31 14:56:00,78.8,45.6,0.00,SSW,202,0.0,3.1,31,0.00,,,0.00,VWS V13.01,2013-08-31 19:56:00,
2013-08-31 15:01:00,78.8,44.8,0.00,South,183,4.0,6.3,30,0.00,,,0.00,VWS V13.01,2013-08-31 20:01:00,
2013-08-31 15:06:00,78.6,45.5,0.00,South,172,3.6,3.6,31,0.00,,,0.00,VWS V13.01,2013-08-31 20:06:00,
2013-08-31 15:11:00,78.6,45.5,0.00,South,173,0.0,3.6,31,0.00,,,0.00,VWS V13.01,2013-08-31 20:11:00,
2013-08-31 15:16:00,78.8,44.8,0.00,SSW,193,3.6,4.0,30,0.00,,,0.00,VWS V13.01,2013-08-31 20:16:00,
2013-08-31 15:21:00,78.6,45.5,0.00,SSW,211,3.6,4.9,31,0.00,,,0.00,VWS V13.01,2013-08-31 20:21:00,
2013-08-31 15:26:00,79.0,44.9,0.00,SSW,203,4.9,5.8,30,0.00,,,0.00,VWS V13.01,2013-08-31 20:26:00,
2013-08-31 15:31:00,79.0,44.9,0.00,SSW,197,0.0,4.0,30,0.00,,,0.00,VWS V13.01,2013-08-31 20:31:00,
2013-08-31 15:36:00,79.2,45.1,0.00,North,3,5.4,6.3,30,0.00,,,0.00,VWS V13.01,2013-08-31 20:36:00,
2013-08-31 15:41:00,79.2,45.1,0.00,South,187,3.1,5.4,30,0.00,,,0.00,VWS V13.01,2013-08-31 20:41:00,
2013-08-31 15:46:00,79.2,45.1,0.00,SSE,162,4.0,5.8,30,0.00,,,0.00,VWS V13.01,2013-08-31 20:46:00,
2013-08-31 15:51:00,79.2,45.1,0.00,South,169,3.6,4.0,30,0.00,,,0.00,VWS V13.01,2013-08-31 20:51:00,
2013-08-31 15:56:00,79.0,44.9,0.00,SSE,168,5.8,5.8,30,0.00,,,0.00,VWS V13.01,2013-08-31 20:56:00,
2013-08-31 16:01:00,79.0,44.9,0.00,South,172,4.9,4.9,30,0.00,,,0.00,VWS V13.01,2013-08-31 21:01:00,
2013-08-31 16:06:00,79.2,45.1,0.00,SSW,202,4.0,4.0,30,0.00,,,0.00,VWS V13.01,2013-08-31 21:06:00,
2013-08-31 16:11:00,79.3,45.2,0.00,South,181,4.0,4.0,30,0.00,,,0.00,VWS V13.01,2013-08-31 21:11:00,
2013-08-31 16:16:00,79.3,45.2,0.00,South,178,4.0,5.4,30,0.00,,,0.00,VWS V13.01,2013-08-31 21:16:00,
2013-08-31 16:21:00,79.2,45.1,0.00,SSE,149,8.1,8.1,30,0.00,,,0.00,VWS V13.01,2013-08-31 21:21:00,
2013-08-31 16:26:00,79.3,44.4,0.00,SSE,167,6.3,6.3,29,0.00,,,0.00,VWS V13.01,2013-08-31 21:26:00,
2013-08-31 16:31:00,79.3,45.2,0.00,South,185,5.8,8.7,30,0.00,,,0.00,VWS V13.01,2013-08-31 21:31:00,
2013-08-31 16:36:00,79.3,45.2,0.00,SSW,197,4.0,5.4,30,0.00,,,0.00,VWS V13.01,2013-08-31 21:36:00,
2013-08-31 16:41:00,79.3,43.4,0.00,South,171,8.3,8.3,28,0.00,,,0.00,VWS V13.01,2013-08-31 21:41:00,
2013-08-31 16:46:00,79.3,42.5,0.00,South,173,8.3,8.3,27,0.00,,,0.00,VWS V13.01,2013-08-31 21:46:00,
2013-08-31 16:51:00,79.3,44.4,0.00,SSW,194,2.7,5.4,29,0.00,,,0.00,VWS V13.01,2013-08-31 21:51:00,
2013-08-31 16:56:00,79.3,45.2,0.00,SSE,165,6.3,6.3,30,0.00,,,0.00,VWS V13.01,2013-08-31 21:56:00,
2013-08-31 17:01:00,79.3,45.2,0.00,SSE,168,3.6,4.0,30,0.00,,,0.00,VWS V13.01,2013-08-31 22:01:00,
2013-08-31 17:06:00,79.3,45.2,0.00,SSW,193,3.6,3.6,30,0.00,,,0.00,VWS V13.01,2013-08-31 22:06:00,
2013-08-31 17:11:00,79.3,45.2,0.00,SE,127,5.8,5.8,30,0.00,,,0.00,VWS V13.01,2013-08-31 22:11:00,
2013-08-31 17:16:00,79.5,45.4,0.00,SSE,153,4.0,4.0,30,0.00,,,0.00,VWS V13.01,2013-08-31 22:16:00,
2013-08-31 17:21:00,79.7,45.6,0.00,South,181,3.1,3.1,30,0.00,,,0.00,VWS V13.01,2013-08-31 22:21:00,
2013-08-31 17:26:00,79.5,45.4,0.00,South,173,6.3,8.1,30,0.00,,,0.00,VWS V13.01,2013-08-31 22:26:00,
2013-08-31 17:31:00,79.7,45.6,0.00,SSW,199,2.7,3.6,30,0.00,,,0.00,VWS V13.01,2013-08-31 22:31:00,
2013-08-31 17:36:00,79.7,45.6,0.00,South,184,5.4,5.8,30,0.00,,,0.00,VWS V13.01,2013-08-31 22:36:00,
2013-08-31 17:41:00,79.5,45.4,0.00,South,176,5.4,7.6,30,0.00,,,0.00,VWS V13.01,2013-08-31 22:41:00,
2013-08-31 17:46:00,79.5,46.3,0.00,SSE,167,5.4,6.3,31,0.00,,,0.00,VWS V13.01,2013-08-31 22:46:00,
2013-08-31 17:51:00,79.5,45.4,0.00,SSE,156,6.3,7.6,30,0.00,,,0.00,VWS V13.01,2013-08-31 22:51:00,
2013-08-31 17:56:00,79.5,46.3,0.00,SE,142,5.4,6.3,31,0.00,,,0.00,VWS V13.01,2013-08-31 22:56:00,
2013-08-31 18:01:00,79.3,46.1,0.00,SSE,167,6.3,6.3,31,0.00,,,0.00,VWS V13.01,2013-08-31 23:01:00,
2013-08-31 18:06:00,79.5,46.3,0.00,South,174,4.0,5.8,31,0.00,,,0.00,VWS V13.01,2013-08-31 23:06:00,
2013-08-31 18:11:00,79.3,46.1,0.00,South,179,6.3,7.2,31,0.00,,,0.00,VWS V13.01,2013-08-31 23:11:00,
2013-08-31 18:16:00,79.3,46.1,0.00,SSE,162,5.8,5.8,31,0.00,,,0.00,VWS V13.01,2013-08-31 23:16:00,
2013-08-31 18:21:00,79.3,46.1,0.00,South,178,2.7,2.7,31,0.00,,,0.00,VWS V13.01,2013-08-31 23:21:00,
2013-08-31 18:26:00,79.2,46.0,0.00,South,187,0.0,0.0,31,0.00,,,0.00,VWS V13.01,2013-08-31 23:26:00,
2013-08-31 18:31:00,79.0,45.8,0.00,South,186,0.0,0.0,31,0.00,,,0.00,VWS V13.01,2013-08-31 23:31:00,
2013-08-31 18:36:00,78.8,45.6,0.00,SSE,149,2.2,2.2,31,0.00,,,0.00,VWS V13.01,2013-08-31 23:36:00,
2013-08-31 18:41:00,78.8,45.6,0.00,SSE,149,0.0,0.0,31,0.00,,,0.00,VWS V13.01,2013-08-31 23:41:00,
2013-08-31 18:46:00,78.8,47.3,0.00,SSE,163,3.6,3.6,33,0.00,,,0.00,VWS V13.01,2013-08-31 23:46:00,
2013-08-31 18:51:00,78.3,47.6,0.00,SSE,156,3.1,3.1,34,0.00,,,0.00,VWS V13.01,2013-08-31 23:51:00,
2013-08-31 18:56:00,78.1,47.5,0.00,SSE,156,0.0,0.0,34,0.00,,,0.00,VWS V13.01,2013-08-31 23:56:00,
2013-08-31 19:01:00,77.5,47.0,0.00,SSE,156,0.0,0.0,34,0.00,,,0.00,VWS V13.01,2013-09-01 00:01:00,
2013-08-31 19:06:00,76.6,47.0,0.00,SSE,156,0.0,0.0,35,0.00,,,0.00,VWS V13.01,2013-09-01 00:06:00,
2013-08-31 19:11:00,75.7,46.9,0.00,SSE,156,0.0,0.0,36,0.00,,,0.00,VWS V13.01,2013-09-01 00:11:00,
2013-08-31 19:16:00,75.2,47.2,0.00,SSE,156,0.0,0.0,37,0.00,,,0.00,VWS V13.01,2013-09-01 00:16:00,
2013-08-31 19:21:00,74.7,48.1,0.00,SSE,156,0.0,0.0,39,0.00,,,0.00,VWS V13.01,2013-09-01 00:21:00,
2013-08-31 19:26:00,74.3,48.4,0.00,SSE,156,0.0,0.0,40,0.00,,,0.00,VWS V13.01,2013-09-01 00:26:00,
2013-08-31 19:31:00,73.9,48.1,0.00,SSE,156,0.0,0.0,40,0.00,,,0.00,VWS V13.01,2013-09-01 00:31:00,
2013-08-31 19:36:00,73.8,48.6,0.00,SSE,156,0.0,0.0,41,0.00,,,0.00,VWS V13.01,2013-09-01 00:36:00,
2013-08-31 19:41:00,73.4,48.3,0.00,SSE,156,0.0,0.0,41,0.00,,,0.00,VWS V13.01,2013-09-01 00:41:00,
2013-08-31 19:46:00,73.2,48.8,0.00,SSE,156,0.0,0.0,42,0.00,,,0.00,VWS V13.01,2013-09-01 00:46:00,
2013-08-31 19:51:00,73.0,49.2,0.00,SSE,156,0.0,0.0,43,0.00,,,0.00,VWS V13.01,2013-09-01 00:51:00,
2013-08-31 19:56:00,72.5,49.4,0.00,SSE,156,0.0,0.0,44,0.00,,,0.00,VWS V13.01,2013-09-01 00:56:00,
2013-08-31 20:01:00,72.1,49.0,0.00,SSE,156,0.0,0.0,44,0.00,,,0.00,VWS V13.01,2013-09-01 01:01:00,
2013-08-31 20:06:00,71.8,48.7,0.00,SSE,156,0.0,0.0,44,0.00,,,0.00,VWS V13.01,2013-09-01 01:06:00,
2013-08-31 20:11:00,71.6,49.2,0.00,SSE,156,0.0,0.0,45,0.00,,,0.00,VWS V13.01,2013-09-01 01:11:00,
2013-08-31 20:16:00,71.4,49.6,0.00,SSE,156,0.0,0.0,46,0.00,,,0.00,VWS V13.01,2013-09-01 01:16:00,
2013-08-31 20:21:00,71.1,49.8,0.00,SSE,156,0.0,0.0,47,0.00,,,0.00,VWS V13.01,2013-09-01 01:21:00,
2013-08-31 20:26:00,70.9,50.2,0.00,SSE,156,0.0,0.0,48,0.00,,,0.00,VWS V13.01,2013-09-01 01:26:00,
2013-08-31 20:31:00,70.9,50.2,0.00,SSE,156,0.0,0.0,48,0.00,,,0.00,VWS V13.01,2013-09-01 01:31:00,
2013-08-31 20:36:00,71.1,51.0,0.00,SSE,156,0.0,0.0,49,0.00,,,0.00,VWS V13.01,2013-09-01 01:36:00,
2013-08-31 20:41:00,70.9,50.2,0.00,SSE,156,0.0,0.0,48,0.00,,,0.00,VWS V13.01,2013-09-01 01:41:00,
2013-08-31 20:46:00,70.7,50.6,0.00,SSE,156,0.0,0.0,49,0.00,,,0.00,VWS V13.01,2013-09-01 01:46:00,
2013-08-31 20:51:00,70.9,50.8,0.00,SSE,156,0.0,0.0,49,0.00,,,0.00,VWS V13.01,2013-09-01 01:51:00,
2013-08-31 20:56:00,70.9,50.8,0.00,SSE,156,0.0,0.0,49,0.00,,,0.00,VWS V13.01,2013-09-01 01:56:00,
2013-08-31 21:01:00,71.1,51.0,0.00,SSE,156,0.0,0.0,49,0.00,,,0.00,VWS V13.01,2013-09-01 02:01:00,
2013-08-31 21:06:00,71.2,51.1,0.00,SSE,156,0.0,0.0,49,0.00,,,0.00,VWS V13.01,2013-09-01 02:06:00,
2013-08-31 21:11:00,71.4,51.3,0.00,SSE,156,0.0,0.0,49,0.00,,,0.00,VWS V13.01,2013-09-01 02:11:00,
2013-08-31 21:16:00,71.8,51.1,0.00,SSE,156,0.0,0.0,48,0.00,,,0.00,VWS V13.01,2013-09-01 02:16:00,
2013-08-31 21:21:00,72.0,51.2,0.00,SSE,156,0.0,0.0,48,0.00,,,0.00,VWS V13.01,2013-09-01 02:21:00,
2013-08-31 21:26:00,72.1,51.4,0.00,SSE,156,0.0,0.0,48,0.00,,,0.00,VWS V13.01,2013-09-01 02:26:00,
2013-08-31 21:31:00,72.3,51.5,0.00,SSE,157,0.0,0.0,48,0.00,,,0.00,VWS V13.01,2013-09-01 02:31:00,
2013-08-31 21:36:00,72.5,51.2,0.00,SSE,157,0.0,0.0,47,0.00,,,0.00,VWS V13.01,2013-09-01 02:36:00,
2013-08-31 21:41:00,72.5,51.2,0.00,SSE,157,0.0,0.0,47,0.00,,,0.00,VWS V13.01,2013-09-01 02:41:00,
2013-08-31 21:46:00,72.7,51.3,0.00,SSE,157,0.0,0.0,47,0.00,,,0.00,VWS V13.01,2013-09-01 02:46:00,
2013-08-31 21:51:00,72.9,51.5,0.00,SSE,157,0.0,0.0,47,0.00,,,0.00,VWS V13.01,2013-09-01 02:51:00,
2013-08-31 21:56:00,72.9,50.9,0.00,SSE,157,0.0,0.0,46,0.00,,,0.00,VWS V13.01,2013-09-01 02:56:00,
2013-08-31 22:01:00,72.9,50.9,0.00,SSE,157,0.0,0.0,46,0.00,,,0.00,VWS V13.01,2013-09-01 03:01:00,
2013-08-31 22:06:00,73.0,51.1,0.00,SSE,148,0.0,0.0,46,0.00,,,0.00,VWS V13.01,2013-09-01 03:06:00,
2013-08-31 22:11:00,73.0,51.1,0.00,SSE,148,0.0,0.0,46,0.00,,,0.00,VWS V13.01,2013-09-01 03:11:00,
2013-08-31 22:16:00,73.0,51.1,0.00,SSE,148,0.0,0.0,46,0.00,,,0.00,VWS V13.01,2013-09-01 03:16:00,
2013-08-31 22:21:00,73.0,51.1,0.00,SSE,148,0.0,0.0,46,0.00,,,0.00,VWS V13.01,2013-09-01 03:21:00,
2013-08-31 22:26:00,73.2,51.2,0.00,SSE,148,0.0,0.0,46,0.00,,,0.00,VWS V13.01,2013-09-01 03:26:00,
2013-08-31 22:31:00,73.2,51.2,0.00,SSE,148,0.0,0.0,46,0.00,,,0.00,VWS V13.01,2013-09-01 03:31:00,
2013-08-31 22:36:00,73.4,50.8,0.00,SE,145,0.0,0.0,45,0.00,,,0.00,VWS V13.01,2013-09-01 03:36:00,
2013-08-31 22:41:00,73.9,53.0,0.00,SSE,160,0.0,2.2,48,0.00,,,0.00,VWS V13.01,2013-09-01 03:41:00,
2013-08-31 22:46:00,73.8,51.7,0.00,SSE,160,0.0,0.0,46,0.00,,,0.00,VWS V13.01,2013-09-01 03:46:00,
2013-08-31 22:51:00,73.4,51.4,0.00,SSE,160,0.0,0.0,46,0.00,,,0.00,VWS V13.01,2013-09-01 03:51:00,
2013-08-31 22:56:00,73.4,51.4,0.00,SSE,168,0.0,0.0,46,0.00,,,0.00,VWS V13.01,2013-09-01 03:56:00,
2013-08-31 23:01:00,73.6,51.5,0.00,SSE,161,0.0,0.0,46,0.00,,,0.00,VWS V13.01,2013-09-01 04:01:00,
2013-08-31 23:06:00,73.6,51.0,0.00,SSE,161,0.0,0.0,45,0.00,,,0.00,VWS V13.01,2013-09-01 04:06:00,
2013-08-31 23:11:00,73.6,51.5,0.00,SSE,161,0.0,0.0,46,0.00,,,0.00,VWS V13.01,2013-09-01 04:11:00,
2013-08-31 23:16:00,73.6,51.5,0.00,SSE,161,0.0,0.0,46,0.00,,,0.00,VWS V13.01,2013-09-01 04:16:00,
2013-08-31 23:21:00,73.8,51.7,0.00,South,172,0.0,0.0,46,0.00,,,0.00,VWS V13.01,2013-09-01 04:21:00,
2013-08-31 23:26:00,73.8,51.7,0.00,South,177,2.7,3.6,46,0.00,,,0.00,VWS V13.01,2013-09-01 04:26:00,
2013-08-31 23:31:00,73.8,51.7,0.00,South,171,2.7,2.7,46,0.00,,,0.00,VWS V13.01,2013-09-01 04:31:00,
2013-08-31 23:36:00,73.6,51.5,0.00,SSE,160,2.7,2.7,46,0.00,,,0.00,VWS V13.01,2013-09-01 04:36:00,
2013-08-31 23:41:00,73.4,52.0,0.00,South,170,2.7,3.1,47,0.00,,,0.00,VWS V13.01,2013-09-01 04:41:00,
2013-08-31 23:46:00,73.2,51.8,0.00,SSE,166,3.6,3.6,47,0.00,,,0.00,VWS V13.01,2013-09-01 04:46:00,
2013-08-31 23:51:00,73.0,51.6,0.00,South,175,0.0,2.7,47,0.00,,,0.00,VWS V13.01,2013-09-01 04:51:00,
2013-08-31 23:56:00,72.9,51.5,0.00,South,175,0.0,0.0,47,0.00,,,0.00,VWS V13.01,2013-09-01 04:56:00,